Regional Weather Roundup
Issued by NWS

Home | Current Version | Previous Version | Graphics & Text | Print | Product List | Glossary On
Versions: 1 2 3 4 5 6 7 8 9 10 11 12 13 14 15 16 17 18 19 20 21 22 23 24 25 26 27 28 29 30 31 32 33 34 35 36 37 38 39 40 41 42 43 44 45 46 47 48 49 50
000
ASUS45 KTFX 061410
RWRMT
MONTANA REGIONAL WEATHER ROUNDUP
NATIONAL WEATHER SERVICE GREAT FALLS MT
800 AM MDT MON JUL 06 2015

NOTE: "FAIR" INDICATES FEW OR NO CLOUDS BELOW 12000 FEET WITH NO
SIGNIFICANT WEATHER AND/OR OBSTRUCTIONS TO VISIBILITY.

MTZ001>007-043-061500-
WEST OF THE DIVIDE

CITY           SKY/WX    TMP DP  RH WIND       PRES   REMARKS
KALISPELL      SUNNY     55  43  63 NE6       30.20S
MISSOULA       SUNNY     58  44  60 N5        30.20R
BUTTE          PTSUNNY   55  45  68 NE3       30.27R
MULLAN PASS    SUNNY     47  41  80 SE9G22    30.23S
DEER LODGE       N/A     54  45  71 CALM      30.29S
EUREKA           N/A     55  43  62 SE3       30.22S
HAMILTON         N/A     57  48  72 S5        30.19S
LIBBY            N/A     54  43  66 CALM      30.20F
$$

MTZ008-052>055-061500-
SOUTHWEST MONTANA

CITY           SKY/WX    TMP DP  RH WIND       PRES   REMARKS
BOZEMAN        CLOUDY    55  49  80 CALM      30.26S
DILLON         CLOUDY    53  47  79 N3        30.26S
W YELLOWSTONE  CLOUDY    50  46  87 N5        30.32S
THREE FORKS      N/A     56  56 100 CALM      30.23S
TWIN BRIDGES     N/A     55  43  64 N7        30.22R
$$

MTZ009-010-012-014-046-048-049-054-061500-
EAST SLOPES AND CENTRAL MONTANA

CITY           SKY/WX    TMP DP  RH WIND       PRES   REMARKS
CUT BANK       SUNNY     48  46  93 CALM      30.24F
GREAT FALLS    SUNNY     52  49  89 SE6       30.25F
MALMSTROM AFB  SUNNY     53  50  90 S5        30.26F
HELENA         CLOUDY    53  46  77 W5        30.26F
CONRAD           N/A     49  49 100 CALM      30.25S
$$

MTZ011-013-016-021-045-047-050-051-061500-
NORTH CENTRAL MONTANA

CITY           SKY/WX    TMP DP  RH WIND       PRES   REMARKS
HAVRE          SUNNY     54  51  90 MISG      30.25R
LEWISTOWN      PTSUNNY   54  48  80 CALM      30.28S
CHINOOK          N/A     57  52  82 W6        30.24S
FORT BENTON      N/A     55  48  76 CALM      30.27F
$$

MTZ017>020-022>027-061-062-061500-
NORTHEAST MONTANA

CITY           SKY/WX    TMP DP  RH WIND       PRES   REMARKS
GLASGOW        MOSUNNY   58  51  78 NW6       30.22R
JORDAN           N/A     59  54  83 W8        30.24S
SIDNEY         SUNNY     63  52  67 NW9       30.19R
WOLF POINT     SUNNY     62  54  74 N6        30.21R
MALTA            N/A     56  52  86 CALM      30.19R
PLENTYWOOD       N/A     57  52  82 N8        30.20R
POPLAR           N/A     61  54  77 CALM      30.21R
$$

MTZ028>42-056>058-061500-
SOUTHCENTRAL AND SOUTHEAST MONTANA

CITY           SKY/WX    TMP DP  RH WIND       PRES   REMARKS
BAKER          PTSUNNY   59  54  83 N9        30.22S
BILLINGS       CLOUDY    55  49  80 NE8       30.29S
LIVINGSTON     CLOUDY    53  49  86 E10       30.27R
MILES CITY     CLOUDY    58  55  90 W7        30.24R
EKALAKA          N/A     56  52  86 NW8       30.20R
FORSYTH          N/A     57  57 100 W5        30.25S
LAUREL           N/A     56  46  69 NE3       30.24S
ROUNDUP          N/A     56  48  74 MISG      30.17S
$$

REGIONAL REPORTS...DAKOTAS

CITY           SKY/WX    TMP DP  RH WIND       PRES   REMARKS
WILLISTON      PTSUNNY   58  52  80 NE10      30.19R HAZE
MINOT          CLOUDY    57  50  77 NW3       30.15R SMOKE
DICKINSON      CLOUDY    60  52  74 NW7       30.17R
BEACH          FAIR      59  55  88 NW7       30.21S
CROSBY         FAIR      55  55 100 N7        30.19F FOG
BISMARCK       PTSUNNY   62  55  77 NW7       30.13R HAZE
GRAND FORKS    CLOUDY    56  49  77 N13       30.08R
FARGO          MOSUNNY   62  51  67 N14G23    30.02R
BUFFALO SD       N/A     60  54  80 NW17      30.14R
RAPID CITY     CLOUDY    59  54  83 N16       30.21R
$$

REGIONAL REPORTS...WYOMING/IDAHO/WASHINGTON

CITY           SKY/WX    TMP DP  RH WIND       PRES   REMARKS
GILLETTE       CLOUDY    54  50  86 N7        30.27R
SHERIDAN       LGT RAIN  54  52  93 N7        30.28R FOG
BUFFALO WY     FOG       51  51 100 N6        30.30R VSB 3/4
CODY           CLOUDY    54  46  76 N5        30.29S
YELLOWSTONE LA   N/A     50  47  89 CALM      30.38S
IDAHO FALLS    CLOUDY    60  55  83 NW7       30.18R
SALMON         SUNNY     61  48  63 N5        30.17S
BOISE          MOSUNNY   71  53  52 SE7       30.04R
SPOKANE        PTSUNNY   64  43  46 NE6       30.07R
$$

REGIONAL REPORTS...ALBERTA

CITY           SKY/WX    TMP DP  RH WIND       PRES   REMARKS
EDMONTON       SUNNY     57  41  54 SE5       30.15S
CALGARY        PTSUNNY   52  46  82 S12       30.18S
LETHBRIDGE     MOSUNNY   52  48  87 S5        30.22S
MEDICINE HAT   MOSUNNY   52  48  87 SW3       30.23F
CARDSTON         N/A     48  46  93 SE1         N/A
MILK RIVER       N/A     50  45  81 CALM        N/A
ONEFOUR          N/A     54  46  76 NW5         N/A
$$

REGIONAL REPORTS...SASKATCHEWAN

CITY           SKY/WX    TMP DP  RH WIND       PRES   REMARKS
SWIFT CURRENT  MOSUNNY   54  50  87 W5        30.23R
REGINA         MOSUNNY   57  48  72 N3        30.22S
SASKATOON      PTSUNNY   50  48  93 SW2       30.23R
CYPRESS HILLS    N/A     48  45  87 NW1         N/A
VAL MARIE        N/A     57  50  77 N1          N/A
ROCKGLEN         N/A     54  50  87 N5          N/A
ASSINIBOIA       N/A     55  48  76 SW6         N/A
$$


USA.gov is the U.S. government's official web portal to all federal, state and local government web resources and services.